Temp
9 8 8 8 7 7 6 5 5 4 3 3 2 2 1 1 1 1 1 0 -0 -1
8 8 8 7 6 5 5 4 4 3 3 2 1 1 1 0 0 0 -0 -1 -1 -2
7 7 6 5 5 4 4 3 3 2 2 1 1 0 0 0 0 -0 -1 -1 -2 -2
7 5 5 4 4 4 3 2 2 1 1 0 0 -0 -0 -0 -1 -1 -2 -2 -3 -3
6 5 4 5 4 3 2 2 1 0 -0 -0 -1 -1 -1 -2 -2 -2 -3 -3 -4 -4
5 5 4 4 4 3 2 1 0 -0 -1 -1 -2 -2 -2 -2 -3 -3 -4 -4 -4 -4
5 5 4 4 3 2 1 0 -0 -1 -1 -1 -2 -3 -3 -3 -4 -4 -4 -4 -4 -5
5 4 3 2 2 1 0 -0 -1 -1 -1 -2 -3 -3 -4 -4 -4 -5 -5 -5 -5 -5
2 3 2 2 1 0 -0 -1 -1 -2 -2 -2 -3 -4 -5 -5 -5 -5 -5 -5 -6 -6
3 2 1 1 -0 -0 -1 -1 -2 -2 -3 -3 -5 -5 -5 -5 -5 -5 -6 -6 -6 -7
2 1 1 0 -0 -1 -1 -2 -2 -2 -3 -4 -5 -5 -5 -5 -6 -6 -6 -7 -7 -7
1 1 0 -0 -1 -1 -2 -2 -3 -3 -4 -5 -5 -5 -6 -6 -6 -6 -7 -7 -8 -8
0 -0 -1 -1 -1 -2 -2 -3 -3 -4 -5 -5 -6 -6 -6 -6 -7 -7 -7 -8 -8 -8
-0 -1 -1 -1 -2 -2 -3 -3 -4 -4 -5 -5 -6 -6 -6 -7 -7 -8 -8 -8 -8 -9
Height
1541 1543 1544 1544 1545 1545 1545 1545 1544 1542 1541 1539 1537 1535 1533 1531 1529 1527 1525 1521 1518 1516
1539 1539 1540 1541 1541 1542 1541 1540 1539 1537 1536 1534 1532 1530 1528 1526 1524 1521 1517 1515 1513 1512
1536 1536 1537 1538 1536 1536 1536 1535 1534 1532 1530 1529 1527 1525 1523 1521 1517 1514 1512 1510 1509 1508
1531 1532 1532 1536 1536 1534 1533 1531 1529 1527 1526 1525 1523 1521 1519 1515 1512 1510 1508 1506 1503 1501
1528 1525 1526 1531 1532 1531 1529 1527 1526 1524 1522 1521 1519 1517 1513 1509 1507 1505 1503 1502 1502 1497
1525 1526 1523 1527 1527 1526 1525 1524 1521 1520 1518 1516 1513 1510 1509 1506 1503 1501 1500 1498 1498 1497
1525 1524 1523 1523 1523 1522 1521 1520 1518 1516 1513 1511 1507 1505 1503 1501 1499 1498 1498 1497 1497 1494
1520 1519 1518 1520 1519 1518 1517 1516 1514 1512 1510 1506 1503 1501 1499 1498 1497 1496 1495 1495 1494 1491
1518 1519 1516 1516 1515 1515 1513 1511 1509 1509 1505 1501 1500 1497 1495 1494 1493 1491 1491 1490 1489 1486
1518 1518 1515 1513 1511 1511 1509 1506 1505 1501 1499 1497 1496 1493 1492 1489 1489 1489 1487 1486 1484 1481
1514 1513 1511 1511 1510 1507 1505 1502 1498 1496 1494 1491 1490 1487 1488 1485 1484 1483 1483 1483 1480 1477
1510 1508 1507 1505 1504 1503 1500 1498 1494 1490 1488 1487 1486 1483 1483 1481 1479 1480 1479 1477 1475 1473
1505 1503 1501 1499 1498 1496 1495 1493 1488 1485 1484 1482 1479 1478 1477 1476 1475 1475 1474 1472 1470 1467
1500 1498 1497 1496 1493 1491 1490 1487 1483 1481 1478 1477 1476 1473 1472 1471 1471 1470 1469 1466 1466 1464
Wind_Speed
13 9 10 9 13 15 14 14 16 18 18 18 21 22 23 24 24 24 25 27 24 21
15 14 14 13 14 13 11 11 11 17 20 20 20 21 23 23 22 21 21 23 22 17
12 12 9 8 10 10 13 12 14 15 17 18 20 21 21 21 22 25 24 24 20 20
17 8 9 9 9 11 11 13 13 16 17 19 19 20 20 23 26 28 26 21 20 13
16 5 5 9 12 12 12 13 14 16 18 19 18 18 21 22 25 23 23 13 11 13
3 7 9 12 13 14 13 14 16 19 17 19 18 22 25 24 19 16 13 13 13 14
10 10 9 13 14 14 15 17 17 17 18 19 21 18 18 14 16 13 11 14 14 15
8 11 15 13 12 15 17 17 18 18 17 19 21 17 17 15 15 12 11 13 17 15
12 11 10 11 16 17 15 18 19 17 22 27 25 19 20 19 20 14 16 14 16 16
10 9 10 15 15 17 19 19 17 21 24 27 21 23 20 18 15 16 13 14 16 17
8 11 18 15 18 19 19 18 22 26 27 20 22 20 20 18 17 18 14 14 17 15
13 14 14 16 18 20 18 20 25 26 23 19 18 22 20 19 18 21 16 18 13 14
14 14 15 17 20 20 19 20 24 25 26 23 22 22 20 17 22 22 19 12 13 16
15 15 18 19 20 19 19 22 26 27 26 19 19 18 21 21 23 25 20 18 15 13
Wind_Direction
199 204 197 220 226 251 249 261 267 276 281 287 293 293 292 293 293 294 295 290 296 289
193 201 213 246 249 248 252 257 265 273 285 291 290 293 295 295 297 296 288 292 293 290
203 232 280 243 251 243 256 266 276 288 288 290 293 296 296 298 281 275 281 291 294 288
216 235 241 254 248 256 259 273 281 286 291 295 298 301 304 287 281 293 303 289 291 286
259 256 200 252 265 265 266 280 289 292 296 297 297 298 292 295 295 299 293 292 291 287
188 220 238 248 258 262 276 281 289 293 298 299 295 292 295 297 300 285 283 285 291 295
248 239 255 253 255 266 275 286 294 296 295 301 290 298 294 285 284 283 289 298 303 302
244 278 258 261 264 269 286 297 295 298 294 285 293 296 288 269 282 286 290 297 292 291
308 255 254 258 270 293 291 285 292 293 284 283 296 284 284 286 284 276 291 293 286 288
269 272 273 282 283 283 286 294 297 280 280 297 292 292 280 285 279 292 303 288 286 293
269 280 305 293 285 288 290 286 284 283 296 289 295 286 280 270 284 294 288 280 281 291
316 297 280 283 287 286 286 285 287 289 301 296 297 283 279 273 281 296 278 270 288 289
287 282 286 283 283 286 283 291 285 289 303 293 294 285 271 274 291 291 289 284 275 282
289 285 283 286 282 281 286 286 282 291 300 292 291 286 278 281 285 292 282 279 288 281